Location: Ab? ar R?sh Ba?r?
(24.1861°N, 32.8847°E)
Time: 11:47:21
(UTC+00:00)

Cosmos 2219 Rocket - Pass Details

Date: 24 October 2021
Orbit: 826 x 848 km, 71.0° (Epoch: 04 December)

Event Time Altitude Azimuth Distance (km) Brightness Sun altitude
Rises 16:22:17 0° 184° (S) 3,348 5.4 -16.1°
Reaches altitude 10° 16:24:46 10° 179° (S) 2,417 4.6 -16.6°
Maximum altitude 16:30:05 50° 105° (ESE) 1,048 2.3 -17.9°
Enters shadow 16:33:43 20° 38° (NE) 1,822 3.6 -18.7°
